AirNav   Pilot Hours Calculator
 
 1062 users online  

KBNG Banning Municipal Airport
Banning, California, USA

GOING TO BANNING?


FAA INFORMATION EFFECTIVE 31 JANUARY 2019

Location

FAA Identifier: BNG
Lat/Long: 33-55-21.2000N / 116-51-03.5000W
33-55.353333N / 116-51.058333W
33.9225556 / -116.8509722
(estimated)
Elevation: 2222.4 ft. / 677.4 m (surveyed)
Variation: 14E (1985)
From city: 1 mile SE of BANNING, CA
Time zone: UTC -8 (UTC -7 during Daylight Saving Time)
Zip code: 92220

Airport Operations

Airport use: Open to the public
Activation date: 04/1940
Control tower: no
ARTCC: LOS ANGELES CENTER
FSS: RIVERSIDE FLIGHT SERVICE STATION
NOTAMs facility: RAL (NOTAM-D service available)
Attendance: TUES-FRI 0900-1530
FOR ARPT ATTENDANT CALL (951) 922-3320.
Wind indicator: lighted
Segmented circle: yes
Lights: ACTVT MIRL RWY 08/26 - CTAF.
Beacon: white-green (lighted land airport)
Operates sunset to sunrise.

Airport Communications

CTAF/UNICOM: 122.8
WX AWOS-3: 134.625 (951-922-4674)
WX AWOS-3 at HMT (14 nm SW): 118.375 (951-925-6886)
WX ASOS at PSP (18 nm E): PHONE 760-322-7597

Nearby radio navigation aids

VOR radial/distance  VOR name  Freq  Var
HDFr048/(18.8)HOMELAND VOR113.4014E
PSPr266/21.2PALM SPRINGS VORTAC115.5013E
RALr080/(29.9)RIVERSIDE VOR112.4014E
PDZr075/33.8PARADISE VORTAC112.2015E
TRMr284/38.7THERMAL VORTAC116.2013E

Airport Services

Fuel available: 100LL
FUEL AVBL WITH 24 HR SELF SVC CREDIT CARD. FUEL APN NOT LEVEL AND ACFT MAY NOT FILL COMPLETELY.
Parking: tiedowns
Airframe service: NONE
Powerplant service: NONE
Bottled oxygen: NONE
Bulk oxygen: NONE

Runway Information

Runway 8/26

Dimensions: 4955 x 100 ft. / 1510 x 30 m
Surface: asphalt, in fair condition
Weight bearing capacity: 
Single wheel: 12.5
Runway edge lights: medium intensity
Gradient: WEST
RUNWAY 8  RUNWAY 26
Latitude: 33-55.356430N33-55.349927N
Longitude: 116-51.548577W116-50.568532W
Elevation: 2222.4 ft.2103.8 ft.
Gradient: 2.4%2.4% UP
Traffic pattern: leftright
Markings: basic, in fair conditionbasic, in fair condition
Visual slope indicator: 2-light PAPI on left (3.50 degrees glide path)
Touchdown point: yes, no lightsyes, no lights

Airport Ownership and Management from official FAA records

Ownership: Publicly-owned
Owner: CITY OF BANNING
P.O. BOX 998
BANNING, CA 92220
Phone (951) 922-3105
Manager: CARL SZOYKA
176 EAST LINCOLN STREET, PO BOX 998
BANNING, CA 92220-0998
Phone 951-922-3286

Airport Operational Statistics

Aircraft based on the field: 15
Single engine airplanes: 15
    
Aircraft operations: avg 69/week *
80% transient general aviation
20% local general aviation
* for 12-month period ending 31 March 2018

Additional Remarks

NO INTERSECTION TAKEOFFS TO THE WEST.
RY 08/26 NO STRAIGHT-IN LANDINGS.
RWY 26 AFTER TAKEOFF AVOID OVERFLYING HOUSES 4 MILES WEST.

Instrument Procedures

There are no published instrument procedures at KBNG.

Some nearby airports with instrument procedures:

KHMT - Hemet-Ryan Airport (14 nm SW)
KREI - Redlands Municipal Airport (18 nm NW)
KPSP - Palm Springs International Airport (18 nm E)
KRIV - March Air Reserve Base (20 nm W)
L35 - Big Bear City Airport (20 nm N)
 
Loc | Ops | Rwys | IFR | FBO | Links
Com | Nav | Svcs | Stats | Notes

San Bernardino International Airport Authority
 
Area around KBNG (Banning Municipal Airport)
 
Road maps at: MapQuest Bing Google
 
Aerial photo
WARNING: Photo may not be current or correct
Aerial photo of KBNG (Banning Municipal Airport)
Photo taken 30-Oct-2013
looking southwest.

Do you have a better or more recent aerial photo of Banning Municipal Airport that you would like to share? If so, please send us your photo.

 
Sectional chart

 
Airport distance calculator
Flying to Banning Municipal Airport? Find the distance to fly.

From to KBNG

Sunrise and sunset
Times for 17-Feb-2019
 Local
(UTC-8)
 Zulu
(UTC)
Morning civil twilight06:0514:05
Sunrise06:3114:31
Sunset17:3201:32
Evening civil twilight17:5801:58

Current date and time
Zulu (UTC)  17-Feb-2019 19:22:15
Local (UTC-8)  17-Feb-2019 11:22:15
 
METAR
KREI 
18nm NW 
SuperAWOS
171855Z AUTO 34006KT 10SM 10/M02 A3005
KPSP 
19nm E 
171853Z VRB05KT 10SM CLR 16/M02 A3001 RMK AO2 SLP163 T01561022
KL35 
20nm N 
171855Z AUTO 24008G17KT 204V274 10SM SCT044 M02/M10 A2990 RMK AO2
KRIV 
21nm W 
171858Z AUTO 00000KT 10SM FEW039 SCT048 10/01 A3005 RMK AO2 SLP178 T00970013
KSBD 
22nm NW 
171850Z 00000KT 10SM SCT041 BKN110 11/M02 A3008
KF70 
25nm SW 
171855Z AUTO 21010G15KT 10SM SCT030 SCT039 11/M00 A3007 RMK AO1
KRAL 
30nm W 
171853Z VRB04KT 10SM SCT050 11/03 A3008 RMK AO2 SLP177 T01060028
TAF
KPSP 
19nm E 
171720Z 1718/1818 34015G25KT P6SM VCSH BKN050 FM181000 32010G20KT P6SM BKN150 FM181300 33007KT P6SM SCT150
KRIV 
21nm W 
171208Z 1712/1818 VRB06KT 9999 FEW040 SCT050 540307 QNH3000INS BECMG 1717/1718 24012KT 9999 -SHRA BKN025 OVC040 620307 540209 QNH2994INS WND 180V300 BECMG 1720/1721 30012KT 9999 VCSH BKN020 OVC040 620307 540009 QNH2992INS TEMPO 1721/1803 30015G25KT 6000 -SHRA BR BKN015 OVC030 BECMG 1802/1803 29012KT 9999 VCSH BKN025 OVC040 620305 540209 QNH2995INS BECMG 1805/1806 26006KT 9999 VCSH SCT020 BKN030 620303 540309 QNH2996INS BECMG 1807/1808 VRB06KT 9999 NSW SCT025 BKN040 QNH2998INS TX11/1722Z TN01/171
KSBD 
22nm NW 
171720Z 1718/1818 VRB05KT P6SM BKN030 FM172100 28012G22KT P6SM -SHRA BKN040 FM180600 26008KT P6SM BKN030 FM180900 VRB05KT P6SM SCT040
NOTAMs
Click for the latest NOTAMs
NOTAMs are issued by the DoD/FAA and will open in a separate window not controlled by AirNav.

 

 
 

FBO, Fuel Providers, and Aircraft Ground Support

  
 Business Name 
 
 Contact 
 
 Services / Description 
 
Fuel Prices
 
Comments
  
City of Banning 951-922-3320
no information available

If you are affiliated with City of Banning and would like to show here your services, contact info, web link, logo, and more, click here
100LL
PS $4.67 
 Updated 01-Feb-2019
 
   1 read write
PS=Pump service
Update Fuel Prices
 

Would you like to see your business listed on this page?

 If your business provides an interesting product or service to pilots, flight crews, aircraft, or users of the Banning Municipal Airport, you should consider listing it here.  To start the listing process, click on the button below
 
Add a business
 

Other Pages about Banning Municipal Airport

www.ci.banning.ca.us/...
 
Update a link
 
Copyright © AirNav, LLC. All rights reserved. Privacy Policy  Contact